Cloud_Cover
0 0 0 0 0 0 0 0 0 0 0 0 0 0 0 0 0 0 0 0 0 0 0 0 0 0 0 0 0 0 0 0 0 0 0 0 0 0 0 0 0 0 0 0
0 0 0 0 0 0 0 0 0 0 0 0 0 0 0 0 0 0 0 0 0 0 0 0 0 0 0 0 0 0 0 0 0 0 0 0 0 0 0 2 5 0 0 0
0 0 0 0 0 0 0 0 0 0 0 0 0 0 0 0 0 0 0 0 0 0 0 0 0 0 0 0 0 0 0 0 0 0 0 0 0 0 0 1 2 0 0 0
0 0 0 0 0 0 0 0 0 0 0 0 0 0 0 0 0 0 0 0 0 0 0 0 0 0 0 0 0 0 0 0 0 0 0 0 0 1 0 5 5 1 5 4
0 0 0 0 0 0 0 0 0 0 0 0 0 0 0 0 0 0 0 0 0 0 0 0 0 0 0 0 0 0 0 0 0 0 0 0 0 5 5 5 5 1 5 5
0 0 0 0 0 0 0 0 0 0 0 0 0 0 0 0 0 0 0 0 0 0 0 0 0 0 0 0 0 0 0 0 0 0 0 0 4 5 6 86 14 5 3 5
0 0 0 0 0 0 0 0 0 0 0 0 0 0 0 0 0 0 0 0 0 0 0 0 0 0 0 0 0 0 0 0 0 0 0 0 3 5 5 58 5 5 4 1
0 0 0 0 0 0 0 0 0 0 0 0 0 0 0 0 0 0 0 0 0 0 0 0 0 0 0 0 0 0 0 0 0 0 0 0 0 0 5 5 5 5 5 5
0 0 0 0 0 0 2 0 0 0 0 0 0 0 0 0 0 0 0 0 4 5 4 0 0 0 0 0 0 0 0 1 3 0 0 0 6 19 38 80 51 14 5 5
0 0 0 0 0 3 0 0 0 1 4 5 0 0 0 0 0 0 1 2 4 3 0 0 0 0 0 0 0 1 2 0 0 0 0 1 99 93 98 61 57 12 14 7
0 0 0 0 0 5 0 0 0 5 5 5 4 0 0 0 4 5 5 5 4 0 0 0 0 0 0 0 0 5 5 3 3 0 0 5 67 100 98 65 99 49 80 23
0 0 0 0 0 4 0 0 0 5 5 25 5 1 0 2 2 5 5 5 5 0 0 0 0 0 0 0 0 0 5 5 5 5 3 5 23 42 5 5 99 100 100 97
0 0 0 0 1 5 0 0 0 5 7 23 1 2 0 1 5 5 5 5 5 5 5 0 0 0 0 0 0 0 0 5 4 3 4 5 5 60 8 5 5 5 35 100
0 0 0 0 0 2 1 0 0 5 54 33 5 1 0 1 5 5 5 5 5 5 3 3 2 0 0 0 0 0 0 2 1 4 5 5 5 49 28 5 5 5 63 100
0 0 0 0 0 0 4 0 0 22 36 0 60 1 0 4 5 29 5 2 5 5 5 5 5 3 0 0 5 4 5 0 0 0 0 4 5 8 4 1 0 0 7 50
0 0 0 0 0 0 0 0 3 78 67 27 100 81 0 0 5 5 4 1 5 5 11 5 4 0 5 5 5 0 4 0 0 0 0 5 5 0 0 0 0 0 2 5
0 0 0 0 0 0 0 0 5 50 97 78 50 93 6 0 5 5 5 5 5 5 1 0 0 2 5 3 0 0 4 0 0 0 0 3 0 0 0 0 0 0 0 0
0 0 0 0 0 0 5 0 0 3 7 5 95 97 27 4 0 5 5 5 5 5 1 0 0 0 5 0 0 0 0 0 0 0 0 0 0 0 0 0 0 0 0 0
0 0 0 0 0 0 0 3 0 0 5 5 25 100 94 5 0 3 5 2 2 2 0 4 5 0 0 0 0 0 0 0 0 0 0 0 0 0 0 0 0 0 0 0
0 0 0 0 0 0 4 2 0 0 4 37 9 80 84 20 4 93 0 0 1 5 0 1 5 2 0 0 0 0 0 0 0 0 0 0 0 0 0 0 0 0 0 0
0 0 0 0 0 0 0 0 0 0 3 99 5 15 5 7 65 27 0 0 0 0 0 0 3 4 0 0 0 0 0 0 0 0 0 0 0 0 0 0 0 0 0 0
0 0 0 0 0 0 3 11 2 2 4 12 45 5 5 2 6 42 8 0 0 0 0 0 0 0 0 0 0 0 0 0 0 0 0 0 0 0 0 0 0 0 0 0
4 0 0 0 0 6 46 5 0 0 0 0 2 5 0 1 1 5 5 5 1 0 0 0 0 0 0 0 0 0 0 0 0 0 0 0 0 0 0 0 0 0 0 0
5 4 0 0 0 0 1 0 0 0 0 0 0 0 0 0 0 0 0 0 1 0 0 0 0 0 0 0 0 0 0 0 0 0 0 0 0 0 0 0 0 0 0 0
98 51 10 24 0 0 0 0 0 0 0 0 0 0 0 0 0 0 0 0 0 0 0 0 0 0 0 0 0 0 0 0 0 0 0 0 0 0 0 0 0 0 2 38
59 78 96 9 5 9 0 0 0 0 0 0 0 0 0 0 0 0 0 0 0 0 0 0 0 0 0 0 0 0 0 0 0 0 0 0 0 0 0 0 5 6 67 91